When you browse on this site, cookies collect data to enhance your experience and personalize the content and advertising you see.
Visit our Privacy Policy to learn more. By continuing to use the site, you agree to this use of cookies and data.
  • In United Kingdom
  • List of Countries
  • For 7 days
  • Water Temperature
  • Satellite Maps
  • Weather Map
  • Weather Widgets
  • user-avatar
    Login

    Hourly Weather Wabal

    Today, 22 April, Monday

    Time Temperature Precipitation Wind Pressure Humidity
    00:00 +24°C° 2.4 mm 0 mps 750 mmHg 96%
    01:00 +24°C° 2.4 mm 0 mps 750 mmHg 96%
    02:00 +24°C° 1.8 mm 0 mps 750 mmHg 96%
    03:00 +24°C° 1.8 mm 0 mps 750 mmHg 95%
    04:00 +24°C° 0 mm 0 mps 750 mmHg 95%
    05:00 +24°C° 0.1 mm 0 mps 750 mmHg 95%
    06:00 +24°C° 0.1 mm 0 mps 750 mmHg 95%
    07:00 +24°C° 0.1 mm 0 mps 750 mmHg 95%
    08:00 +26°C° 0.1 mm 0 mps 750 mmHg 84%
    09:00 +28°C° 0.1 mm 0 mps 750 mmHg 74%
    10:00 +33°C° 0 mm 1 mps 750 mmHg 62%
    11:00 +34°C° 0.1 mm 1 mps 750 mmHg 57%
    12:00 +35°C° 0.1 mm 1 mps 749 mmHg 52%
    13:00 +36°C° 0.1 mm 1 mps 749 mmHg 46%
    14:00 +36°C° 0.1 mm 1 mps 749 mmHg 48%
    15:00 +36°C° 0.1 mm 1 mps 748 mmHg 50%
    16:00 +35°C° 0.1 mm 1 mps 748 mmHg 52%
    17:00 +33°C° 0.3 mm 1 mps 749 mmHg 63%
    18:00 +29°C° 0.3 mm 0 mps 749 mmHg 74%
    19:00 +26°C° 0.3 mm 0 mps 749 mmHg 85%
    20:00 +26°C° 0 mm 0 mps 750 mmHg 87%
    21:00 +25°C° 0 mm 0 mps 750 mmHg 89%
    22:00 +26°C° 0 mm 1 mps 751 mmHg 92%
    23:00 +24°C° 0 mm 0 mps 751 mmHg 92%

    Tomorrow, 23 April, Tuesday

    Time Temperature Precipitation Wind Pressure Humidity
    00:00 +24°C° 0 mm 0 mps 751 mmHg 92%
    01:00 +24°C° 0 mm 0 mps 750 mmHg 92%
    02:00 +24°C° 0 mm 0 mps 750 mmHg 92%
    03:00 +23°C° 0 mm 0 mps 750 mmHg 92%
    04:00 +23°C° 0 mm 0 mps 750 mmHg 92%
    05:00 +24°C° 0 mm 0 mps 751 mmHg 91%
    06:00 +24°C° 0 mm 0 mps 751 mmHg 91%
    07:00 +24°C° 0 mm 0 mps 751 mmHg 90%
    08:00 +28°C° 0 mm 1 mps 751 mmHg 79%
    09:00 +30°C° 0 mm 1 mps 751 mmHg 69%
    10:00 +33°C° 0 mm 1 mps 751 mmHg 58%
    11:00 +34°C° 0 mm 1 mps 750 mmHg 52%
    12:00 +35°C° 0 mm 1 mps 750 mmHg 46%
    13:00 +37°C° 0 mm 1 mps 749 mmHg 40%
    14:00 +36°C° 0 mm 1 mps 748 mmHg 40%
    15:00 +36°C° 0 mm 1 mps 748 mmHg 41%
    16:00 +36°C° 0 mm 1 mps 748 mmHg 42%
    17:00 +33°C° 0 mm 1 mps 748 mmHg 52%
    18:00 +31°C° 0 mm 1 mps 749 mmHg 62%
    19:00 +28°C° 0 mm 1 mps 749 mmHg 72%
    20:00 +27°C° 0 mm 1 mps 750 mmHg 76%
    21:00 +27°C° 0 mm 1 mps 750 mmHg 81%
    22:00 +26°C° 0 mm 1 mps 751 mmHg 85%
    23:00 +26°C° 0 mm 1 mps 751 mmHg 86%

    Day after tomorrow, 24 April, Wednesday

    Time Temperature Precipitation Wind Pressure Humidity
    00:00 +26°C° 0 mm 1 mps 751 mmHg 88%
    01:00 +26°C° 0 mm 1 mps 750 mmHg 89%
    02:00 +26°C° 0 mm 1 mps 750 mmHg 90%
    03:00 +23°C° 0 mm 0 mps 750 mmHg 90%
    04:00 +23°C° 0 mm 0 mps 749 mmHg 91%
    05:00 +24°C° 0 mm 0 mps 750 mmHg 90%
    06:00 +26°C° 0 mm 1 mps 750 mmHg 89%
    07:00 +26°C° 0 mm 1 mps 750 mmHg 88%
    08:00 +28°C° 0 mm 1 mps 750 mmHg 77%
    09:00 +31°C° 0 mm 1 mps 751 mmHg 65%
    10:00 +33°C° 0 mm 1 mps 751 mmHg 54%
    11:00 +35°C° 0 mm 1 mps 750 mmHg 49%
    12:00 +36°C° 0 mm 1 mps 749 mmHg 43%
    13:00 +39°C° 0 mm 1 mps 748 mmHg 38%
    14:00 +39°C° 0 mm 1 mps 748 mmHg 39%
    15:00 +37°C° 0 mm 1 mps 747 mmHg 39%
    16:00 +37°C° 0 mm 1 mps 747 mmHg 40%
    17:00 +34°C° 0 mm 1 mps 747 mmHg 51%
    18:00 +32°C° 0 mm 1 mps 748 mmHg 63%
    19:00 +29°C° 0 mm 1 mps 749 mmHg 74%
    20:00 +26°C° 0 mm 0 mps 749 mmHg 78%
    21:00 +26°C° 0 mm 0 mps 750 mmHg 83%
    22:00 +25°C° 0 mm 0 mps 750 mmHg 87%
    23:00 +25°C° 0 mm 0 mps 750 mmHg 88%

    25 April, Thursday

    Time Temperature Precipitation Wind Pressure Humidity
    00:00 +24°C° 0 mm 0 mps 750 mmHg 89%
    01:00 +24°C° 0 mm 0 mps 749 mmHg 90%
    02:00 +24°C° 0 mm 0 mps 749 mmHg 91%
    03:00 +24°C° 0 mm 0 mps 749 mmHg 92%
    04:00 +24°C° 0 mm 0 mps 748 mmHg 93%
    05:00 +24°C° 0 mm 0 mps 749 mmHg 92%
    06:00 +24°C° 0 mm 0 mps 749 mmHg 91%
    07:00 +24°C° 0 mm 0 mps 750 mmHg 90%
    08:00 +29°C° 0 mm 1 mps 750 mmHg 79%
    09:00 +31°C° 0 mm 1 mps 750 mmHg 68%
    10:00 +33°C° 0 mm 1 mps 750 mmHg 57%
    11:00 +35°C° 0.1 mm 1 mps 749 mmHg 52%
    12:00 +36°C° 0.1 mm 1 mps 748 mmHg 48%
    13:00 +37°C° 0.1 mm 1 mps 747 mmHg 43%
    14:00 +37°C° 0.1 mm 1 mps 747 mmHg 45%
    15:00 +36°C° 0.1 mm 1 mps 747 mmHg 46%
    16:00 +36°C° 0.1 mm 1 mps 746 mmHg 48%
    17:00 +33°C° 0.1 mm 1 mps 747 mmHg 58%
    18:00 +31°C° 0.1 mm 1 mps 748 mmHg 68%
    19:00 +27°C° 0.1 mm 0 mps 748 mmHg 78%
    20:00 +26°C° 0 mm 0 mps 749 mmHg 81%
    21:00 +27°C° 0 mm 1 mps 750 mmHg 84%
    22:00 +27°C° 0 mm 1 mps 750 mmHg 87%
    23:00 +27°C° 0 mm 1 mps 750 mmHg 87%

    26 April, Friday

    Time Temperature Precipitation Wind Pressure Humidity
    00:00 +26°C° 0 mm 1 mps 750 mmHg 87%
    01:00 +26°C° 0 mm 1 mps 749 mmHg 87%
    02:00 +26°C° 0 mm 1 mps 749 mmHg 87%
    03:00 +24°C° 0 mm 0 mps 749 mmHg 87%
    04:00 +23°C° 0 mm 0 mps 749 mmHg 87%
    05:00 +24°C° 0 mm 0 mps 749 mmHg 86%
    06:00 +26°C° 0 mm 1 mps 749 mmHg 85%
    07:00 +26°C° 0 mm 1 mps 750 mmHg 84%
    08:00 +28°C° 0 mm 1 mps 750 mmHg 72%
    09:00 +31°C° 0 mm 1 mps 750 mmHg 59%
    10:00 +34°C° 0 mm 1 mps 750 mmHg 47%
    11:00 +35°C° 0 mm 1 mps 749 mmHg 43%
    12:00 +37°C° 0 mm 1 mps 748 mmHg 40%
    13:00 +39°C° 0 mm 1 mps 747 mmHg 36%
    14:00 +39°C° 0 mm 1 mps 747 mmHg 37%
    15:00 +36°C° 0 mm 0 mps 746 mmHg 38%
    16:00 +35°C° 0 mm 0 mps 746 mmHg 39%
    17:00 +33°C° 0 mm 0 mps 747 mmHg 49%
    18:00 +30°C° 0 mm 0 mps 748 mmHg 58%
    19:00 +27°C° 0 mm 0 mps 748 mmHg 68%
    20:00 +27°C° 0 mm 0 mps 749 mmHg 71%
    21:00 +26°C° 0 mm 0 mps 750 mmHg 74%
    22:00 +25°C° 0 mm 0 mps 750 mmHg 77%
    23:00 +24°C° 0 mm 0 mps 750 mmHg 77%

    27 April, Saturday

    Time Temperature Precipitation Wind Pressure Humidity
    00:00 +24°C° 0 mm 0 mps 750 mmHg 78%
    01:00 +24°C° 0 mm 0 mps 749 mmHg 79%
    02:00 +25°C° 0 mm 1 mps 749 mmHg 79%
    03:00 +25°C° 0 mm 1 mps 749 mmHg 80%
    04:00 +25°C° 0 mm 1 mps 749 mmHg 80%
    05:00 +25°C° 0 mm 1 mps 749 mmHg 80%
    06:00 +23°C° 0 mm 0 mps 750 mmHg 80%
    07:00 +23°C° 0 mm 0 mps 750 mmHg 80%
    08:00 +26°C° 0 mm 0 mps 750 mmHg 70%
    09:00 +29°C° 0 mm 0 mps 750 mmHg 59%
    10:00 +32°C° 0 mm 0 mps 750 mmHg 48%
    11:00 +34°C° 0 mm 0 mps 749 mmHg 44%
    12:00 +37°C° 0 mm 1 mps 749 mmHg 39%
    13:00 +40°C° 0 mm 1 mps 748 mmHg 35%
    14:00 +39°C° 0 mm 1 mps 747 mmHg 36%
    15:00 +39°C° 0 mm 1 mps 747 mmHg 38%
    16:00 +37°C° 0 mm 1 mps 747 mmHg 39%
    17:00 +35°C° 0.1 mm 1 mps 747 mmHg 50%
    18:00 +30°C° 0.1 mm 0 mps 748 mmHg 61%
    19:00 +27°C° 0.1 mm 0 mps 749 mmHg 72%
    20:00 +27°C° 0 mm 0 mps 749 mmHg 75%
    21:00 +28°C° 0 mm 1 mps 750 mmHg 78%
    22:00 +27°C° 0 mm 1 mps 750 mmHg 81%
    23:00 +27°C° 0 mm 1 mps 750 mmHg 81%
    Show more